Terminal Aerodrome Forecast
Issued by NWS Cleveland, OH

Home | Current Version | Previous Version | Graphics & Text | Print | Product List | Glossary Off
Versions: 1 2 3 4 5 6 7 8 9 10 11 12 13 14 15 16 17

000
FTUS41 KCLE 170800 AAA
TAFMFD
TAF AMD
KMFD 170807Z 1708/1806 21010KT P6SM OVC009
     FM171400 29007KT P6SM SCT008 OVC015
     FM171800 32008KT P6SM SCT025
     FM180000 VRB03KT P6SM SKC=

USA.gov is the U.S. government's official web portal to all federal, state and local government web resources and services.